FW1711 Weather Reports


time (UTC)temp
C
wind
direction
speed
KPH
gust
KPH
rain 1hr
cm
rain 24hr
cm
rain mn
cm
humidity
%
barometer
mb
20260507171527 10 360 0.0 1.6 0.00 1.24 1.24 87 999.1
20260507170020 10 360 0.0 1.6 0.00 1.24 1.24 87 998.9
20260507164517 10 107 0.0 1.6 0.00 1.24 1.24 86 998.8
20260507163021 10 107 0.0 0.0 0.03 1.24 1.24 86 998.8
20260507161516 10 107 0.0 0.0 0.05 1.24 1.24 86 998.6
20260507160014 10 107 0.0 3.2 0.05 1.24 1.24 86 998.5
20260507154512 10 107 0.0 0.0 0.03 1.22 1.22 87 998.4
20260507153013 10 107 0.0 1.6 0.05 1.22 1.22 87 998.3
20260507151509 10 90 0.0 3.2 0.03 1.19 1.19 87 998.2
20260507150006 10 89 0.0 3.2 0.05 1.19 1.19 87 998.1
20260507144505 11 90 0.0 3.2 0.15 1.19 1.19 88 998.1
20260507143006 11 72 0.0 1.6 0.15 1.17 1.17 88 997.8
20260507141503 11 178 0.0 0.0 0.18 1.17 1.17 87 997.7
20260507140001 11 162 0.0 0.0 0.15 1.14 1.14 87 997.6
20260507134501 11 161 0.0 0.0 0.10 1.07 1.07 87 997.6
20260507133106 11 161 0.0 0.0 0.08 1.04 1.04 87 997.6
20260507131621 11 161 0.0 0.0 0.05 0.99 0.99 87 997.4
20260507130106 11 161 0.0 0.0 0.05 0.99 0.99 87 997.2
20260507124602 11 173 0.0 0.0 0.05 0.97 0.97 87 996.8
20260507123102 11 173 0.0 1.6 0.08 0.97 0.97 87 996.6
20260507121554 11 173 0.0 1.6 0.08 0.94 0.94 87 996.4
20260507120051 11 173 0.0 1.6 0.10 0.91 0.91 88 996.3
20260507114550 11 184 0.0 0.0 0.10 0.91 0.91 88 996.2
20260507113114 11 184 0.0 0.0 0.05 0.89 0.89 88 996.1
20260507111548 11 184 0.0 1.6 0.05 0.86 0.86 87 996.0
20260507110047 11 92 0.0 1.6 0.00 0.81 0.81 87 996.0
20260507104557 11 92 0.0 0.0 0.00 0.81 0.81 87 995.9
20260507103044 11 91 0.0 1.6 0.00 0.81 0.81 87 995.7
20260507101545 11 86 0.0 3.2 0.00 0.81 0.81 88 995.6
20260507100053 11 200 0.0 1.6 0.00 0.81 0.81 88 995.6
20260507094542 11 202 0.0 3.2 0.00 0.81 0.81 88 995.4
20260507093041 11 202 0.0 4.8 0.03 0.81 0.81 88 995.4
20260507091543 11 84 0.0 1.6 0.03 0.81 0.81 89 995.2
20260507090040 11 82 0.0 1.6 0.03 0.81 0.81 88 995.2
20260507084549 11 82 0.0 1.6 0.05 0.81 0.81 88 995.1
20260507083035 11 80 0.0 3.2 0.05 0.79 0.79 88 994.9
20260507081533 11 109 0.0 0.0 0.05 0.79 0.79 88 994.7
20260507080032 11 109 0.0 0.0 0.05 0.79 0.79 88 994.6
20260507074531 11 109 0.0 0.0 0.05 0.79 0.79 88 994.5
20260507073030 11 109 0.0 1.6 0.05 0.76 0.76 88 994.2
20260507071534 11 109 0.0 0.0 0.05 0.71 0.71 88 994.1
20260507070026 11 109 0.0 0.0 0.13 0.71 0.71 88 993.9
20260507064523 11 109 0.0 0.0 0.18 0.71 0.71 88 993.8
20260507063121 11 109 0.0 0.0 0.23 0.71 0.71 88 993.6
20260507061520 11 109 0.0 0.0 0.30 0.69 0.69 88 993.5
20260507060032 11 109 0.0 0.0 0.33 0.61 0.61 87 993.4
20260507054518 11 109 0.0 0.0 0.28 0.56 0.56 87 993.2
20260507053015 11 109 0.0 0.0 0.18 0.46 0.46 87 993.0
20260507051514 11 109 0.0 0.0 0.10 0.38 0.38 87 992.9
20260507050034 11 109 0.0 0.0 0.03 0.30 0.30 87 992.7
20260507044518 11 109 0.0 0.0 0.03 0.28 0.28 87 992.7
20260507043008 11 109 0.0 3.2 0.05 0.28 0.28 87 992.3
20260507041508 11 113 0.0 1.6 0.05 0.28 0.28 87 992.2
20260507040005 11 113 0.0 1.6 0.05 0.28 0.28 86 992.1
20260507034506 11 114 0.0 0.0 0.05 0.25 0.25 86 992.1
20260507033003 11 114 0.0 0.0 0.05 0.23 0.23 86 992.1
20260507031505 11 113 0.0 3.2 0.05 0.23 0.23 86 992.1
20260507024700 11 140 0.0 0.0 0.00 0.20 0.20 86 991.9
20260507023058 11 140 0.0 0.0 0.00 0.20 0.20 86 991.9
20260507021606 12 140 0.0 0.0 0.00 0.20 0.20 86 991.8
20260507020058 12 140 0.0 0.0 0.00 0.20 0.20 85 991.7
20260507014558 12 140 0.0 0.0 0.00 0.20 0.20 85 991.7
20260507013053 11 140 0.0 0.0 0.00 0.20 0.20 84 991.5
20260507011556 11 140 0.0 0.0 0.00 0.20 0.20 84 991.4
20260507010052 11 140 0.0 0.0 0.00 0.20 0.20 84 991.3
20260507004551 12 140 0.0 0.0 0.03 0.20 0.20 84 991.1
20260507003050 12 140 0.0 0.0 0.05 0.20 0.20 83 991.2
20260507001550 12 140 0.0 0.0 0.10 0.20 0.20 83 991.0
20260507000048 12 140 0.0 0.0 0.13 0.20 0.20 82 991.2
20260506234603 12 140 0.0 1.6 0.15 0.28 0.18 82 991.1
20260506233045 12 140 0.0 3.2 0.15 0.25 0.15 82 991.1
20260506231543 12 113 0.0 1.6 0.10 0.20 0.10 81 990.9
20260506230041 13 113 0.0 0.0 0.08 0.18 0.08 81 991.1
20260506224544 13 173 0.0 4.8 0.03 0.36 0.03 80 991.3
20260506223040 13 106 0.0 3.2 0.00 0.33 0.00 78 991.4
20260506221534 13 115 0.0 0.0 0.00 0.33 0.00 79 991.5
20260506220036 13 115 0.0 0.0 0.00 0.33 0.00 78 990.7
20260506214532 14 115 0.0 0.0 0.00 1.30 0.33 78 990.7
20260506213032 14 115 0.0 0.0 0.00 1.30 0.33 78 990.6
20260506211529 14 115 0.0 0.0 0.00 1.30 0.33 77 990.3
20260506210034 14 115 0.0 0.0 0.00 1.30 0.33 76 990.4
20260506204544 15 115 0.0 0.0 0.00 2.03 0.33 76 989.9
20260506203029 15 115 0.0 0.0 0.00 2.03 0.33 76 989.9
20260506201530 15 115 0.0 0.0 0.00 2.03 0.33 75 990.0
20260506200024 15 115 0.0 0.0 0.00 2.03 0.33 74 990.1
20260506194524 16 115 0.0 0.0 0.00 2.11 0.33 73 990.1
20260506193023 16 115 0.0 0.0 0.00 2.11 0.33 72 990.0
20260506191524 16 115 0.0 0.0 0.00 2.11 0.33 72 989.7
20260506190022 17 115 0.0 0.0 0.00 2.11 0.33 71 989.3
20260506184521 17 115 0.0 0.0 0.00 2.11 0.33 70 989.3
20260506183021 17 115 0.0 4.8 0.00 2.11 0.33 69 988.9
20260506181526 18 129 0.0 0.0 0.00 2.11 0.33 68 988.8
20260506180020 18 130 0.0 3.2 0.00 2.11 0.33 67 988.8
20260506174519 19 49 0.0 1.6 0.00 2.11 0.33 66 988.7
20260506173019 19 169 0.0 1.6 0.00 2.11 0.33 66 988.4